Location: Unspecified
(0.0000°N, 0.0000°E)
Time: 13:40:52
(UTC+00:00)

X-37B - Pass Details

Date: 01 December 2021
Orbit: 329 x 342 km, 45.0° (Epoch: 06 December)

Event Time Altitude Azimuth Distance (km) Brightness Sun altitude
Exits shadow 05:15:59 - 323° (NW) 1,424 2.9 -7.7°
Reaches altitude 10° 05:16:26 10° 324° (NW) 1,239 2.6 -7.6°
Maximum altitude 05:19:11 67° 47° (NE) 356 0.5 -6.9°
Drops below altitude 10° 05:21:57 10° 131° (SE) 1,243 4.6 -6.3°
Sets 05:23:57 0° 134° (SE) 2,079 5.8 -5.8°
